Weather History for Blytheville Muni Airport, AR

Change the Weather History Date:

Monday, May 27, 2013

  Actual Average Record
Temperature  
Mean Temperature 76 °F -  
Max Temperature 87 °F 83 °F 96 °F (1953)
Min Temperature 66 °F 62 °F 41 °F (1961)
Cooling Degree Days 12    
Growing Degree Days 26 (Base 50)    
Moisture  
Dew Point 61 °F    
Average Humidity 58    
Maximum Humidity 75    
Minimum Humidity 44    
Precipitation  
Precipitation 0.00 in - - ()
Sea Level Pressure  
Sea Level Pressure 30.02 in    
Wind  
Wind Speed 10 mph (South)    
Max Wind Speed 20 mph    
Max Gust Speed 28 mph    
Visibility 10 miles    
Events      
Averages and records for this station are not official NWS values.
T = Trace of Precipitation, MM = Missing Value Source: NWS Daily Summary

Daily Weather History Graph

Daily Weather History Graph

Search for Another Location

Airport:

Trip Planner

Search our weather history database for the weather conditions in past years. The results will help you decide how hot, cold, wet, or windy it might be!

Date:

Astronomy

May. 27, 2013 Rise Set
Actual Time 5:45 AM CDT 8:07 PM CDT
Civil Twilight 5:16 AM CDT 8:36 PM CDT
Nautical Twilight 4:40 AM CDT 9:13 PM CDT
Astronomical Twilight 4:00 AM CDT 9:52 PM CDT
Moon 10:49 PM CDT (5/27) 8:21 AM CDT (5/27)
Length of Visible Light 15h 20m
Length of Day
14h 21m
Waning Gibbous, 91% of the Moon is Illuminated
May 27
Waning Gibbous
May 31
Last Quarter
Jun 8
New
Jun 16
First Quarter
Jun 23
Full

Hourly Weather History & Observations

Time (CDT) Temp. Heat Index Dew Point Humidity Pressure Visibility Wind Dir Wind Speed Gust Speed Precip Events Conditions
12:53 AM 70.0 °F - 54.0 °F 57% 30.08 in 10.0 mi South 5.8 mph - N/A   Clear
1:53 AM 69.1 °F - 55.9 °F 63% 30.06 in 10.0 mi South 6.9 mph - N/A   Clear
2:53 AM 69.1 °F - 57.0 °F 65% 30.06 in 10.0 mi South 5.8 mph - N/A   Clear
3:53 AM 68.0 °F - 57.0 °F 68% 30.06 in 10.0 mi South 6.9 mph - N/A   Clear
4:53 AM 66.9 °F - 57.9 °F 73% 30.06 in 10.0 mi South 6.9 mph - N/A   Clear
5:53 AM 66.0 °F - 57.9 °F 75% 30.08 in 10.0 mi South 4.6 mph - N/A   Clear
6:53 AM 69.1 °F - 59.0 °F 70% 30.09 in 10.0 mi South 6.9 mph - N/A   Mostly Cloudy
7:53 AM 72.0 °F - 59.0 °F 64% 30.08 in 10.0 mi South 9.2 mph - N/A   Clear
8:53 AM 77.0 °F - 62.1 °F 60% 30.06 in 10.0 mi South 15.0 mph - N/A   Clear
9:53 AM 79.0 °F - 66.0 °F 64% 30.05 in 10.0 mi SSW 12.7 mph - N/A   Mostly Cloudy
10:53 AM 82.0 °F 84.1 °F 66.0 °F 58% 30.04 in 10.0 mi South 17.3 mph 20.7 mph N/A   Mostly Cloudy
11:53 AM 82.0 °F 84.5 °F 66.9 °F 60% 30.04 in 10.0 mi SSW 10.4 mph 21.9 mph N/A   Overcast
12:53 PM 84.9 °F 88.2 °F 68.0 °F 57% 30.01 in 10.0 mi SSW 17.3 mph 25.3 mph N/A   Partly Cloudy
1:53 PM 84.0 °F 86.3 °F 66.0 °F 55% 30.01 in 10.0 mi South 15.0 mph 25.3 mph N/A   Scattered Clouds
2:53 PM 87.1 °F 88.9 °F 64.9 °F 48% 29.99 in 10.0 mi South 18.4 mph 26.5 mph N/A   Partly Cloudy
3:53 PM 87.1 °F 87.8 °F 63.0 °F 44% 29.98 in 10.0 mi SSW 19.6 mph 27.6 mph N/A   Partly Cloudy
4:53 PM 84.9 °F 85.9 °F 63.0 °F 48% 29.96 in 10.0 mi South 13.8 mph 21.9 mph N/A   Partly Cloudy
5:53 PM 84.0 °F 84.5 °F 62.1 °F 47% 29.97 in 10.0 mi South 16.1 mph 23.0 mph N/A   Scattered Clouds
6:53 PM 82.9 °F 83.3 °F 61.0 °F 47% 29.96 in 10.0 mi South 12.7 mph 20.7 mph N/A   Mostly Cloudy
7:53 PM 81.0 °F 81.3 °F 59.0 °F 47% 29.95 in 10.0 mi South 10.4 mph - N/A   Clear
8:53 PM 79.0 °F - 59.0 °F 50% 29.94 in 10.0 mi South 11.5 mph - N/A   Mostly Cloudy
9:53 PM 78.1 °F - 60.1 °F 54% 29.94 in 10.0 mi South 12.7 mph - N/A   Clear
10:53 PM 77.0 °F - 61.0 °F 58% 29.94 in 10.0 mi South 12.7 mph - N/A   Clear
11:53 PM 75.9 °F - 60.1 °F 58% 29.95 in 10.0 mi South 10.4 mph 18.4 mph N/A   Clear